Reflectivity
-20 -20 -20 -20 -20 -20 -20 -20 -20 -20 -20 -13 -20 -20 0 -20 -20 -12 -15 -10 9 13 14 11 15 19 20
-20 -20 -20 -20 -20 -20 -20 -20 -20 -20 -20 -20 -20 -20 -20 -20 3 -20 8 9 -19 -20 1 4 -6 7 11
-20 -20 -20 -20 -20 -20 -20 -20 -20 -20 -20 -20 -20 -20 -20 -3 3 -0 -20 -20 -20 -18 -20 -20 -5 10 10
-20 -20 -20 -20 -20 -20 -20 -20 -20 -20 -20 -20 -20 -20 -20 -20 -20 -20 -20 -20 -20 -4 0 -4 8 10 9
-20 -20 -20 -20 -20 -20 -20 -20 -20 -20 -20 -20 -20 -20 -20 -20 -20 -20 -20 -19 1 7 7 8 9 9 11
-20 -20 -20 -20 -20 -20 -20 -20 -20 -20 -20 -20 -20 -20 -20 -20 -20 -20 -20 -17 1 1 9 7 10 10 11
-20 -20 -20 -20 -20 -20 -20 -19 -20 -20 -20 -20 -20 -20 -20 -20 -20 -20 -20 -20 -4 2 5 8 10 9 11
-20 -20 -20 -16 2 13 2 -20 -20 -20 -20 -20 -20 -20 -20 -20 -20 -20 -20 -20 -20 -5 1 -5 8 3 7
-20 -3 4 4 -19 -20 -20 -20 -20 -20 -20 -20 -20 -20 -20 -20 -20 -20 -20 -20 -20 -20 -20 -3 3 11 9
-20 -20 -20 -20 -20 -20 -20 -20 -20 -19 -20 -20 -20 -20 -20 -20 -20 -20 -20 -20 -20 -20 -20 -20 -2 -16 -20
-20 -20 -20 -20 -20 -20 -20 -20 -20 -20 -20 -1 -1 -20 -9 -20 -20 -20 -20 -20 -20 -20 -20 -20 -15 -1 -19
-20 -20 -20 -20 -20 -20 -20 -20 -20 -20 -20 -20 8 -20 -17 -15 -20 -20 -20 -20 -20 -20 -20 -20 -20 -13 2
-20 -20 -20 -20 -20 -20 -20 -20 -20 -20 -20 -20 -16 -20 -13 -12 -20 -20 -20 -20 -20 -20 -20 -20 -20 -20 -20
-20 -20 -20 -20 -20 -20 -20 -20 -20 -20 -20 -20 -20 -20 -19 -20 -14 -16 -20 -20 -20 -20 -20 -20 -20 -20 -20
-20 -20 -20 -20 -20 -20 -20 -20 -20 -20 -20 -20 -20 -20 -20 -20 -4 -14 -20 -20 -20 -20 -20 -20 -20 -20 -20
-20 -20 -20 -20 -20 -20 -20 -20 -20 -20 -20 -20 -20 -20 -20 -3 7 3 -9 -20 -20 -19 -14 3 -19 -20 -20
-20 -20 -20 -20 -20 -20 -20 -20 -20 -20 -20 -20 -19 -0 7 -20 3 12 20 14 -13 -20 -20 -20 -20 -20 -20
Wind_Speed
3 3 4 6 7 6 8 9 9 21 24 24 25 24 24 25 27 27 27 28 28 28 28 29 30 30 31
4 3 5 6 6 8 9 9 9 18 24 24 25 25 25 26 26 26 26 26 27 29 28 28 30 30 30
6 3 4 3 6 7 8 9 8 20 23 25 25 26 25 25 25 26 26 26 27 28 29 29 29 29 30
5 4 3 5 6 7 9 8 9 10 17 21 24 22 24 26 27 27 27 27 27 28 28 28 27 29 30
4 2 4 7 9 8 9 10 10 10 11 7 7 7 10 19 22 25 26 26 27 28 29 30 28 30 29
3 6 8 9 8 9 10 10 10 5 3 10 9 10 10 9 22 26 28 29 29 29 29 30 28 28 29
10 8 10 9 11 12 12 10 9 11 11 12 9 12 10 11 25 28 30 30 29 28 28 28 27 28 27
7 9 10 11 11 10 11 10 9 10 10 12 9 12 11 10 25 29 29 28 26 25 26 26 27 28 29
21 22 22 23 21 10 8 8 11 11 9 10 7 10 10 13 12 24 24 24 25 28 29 29 28 28 21
5 9 13 12 19 8 6 8 10 9 3 2 8 7 7 4 6 6 9 22 28 28 28 29 29 13 11
7 7 8 7 7 6 7 7 10 11 13 10 6 9 9 11 6 9 9 13 12 15 24 27 26 22 11
7 7 8 8 8 8 11 11 10 15 15 12 8 9 12 13 14 9 9 10 10 12 11 17 25 25 26
7 8 7 8 11 11 11 11 11 14 12 13 11 12 11 13 14 14 16 9 12 12 11 10 10 9 10
8 9 8 8 10 8 9 10 11 12 11 12 11 11 12 12 12 15 14 12 10 12 11 11 11 11 12
7 8 9 9 10 9 9 10 10 12 13 11 9 11 12 16 14 15 14 14 12 12 12 13 12 12 12
8 8 9 10 10 10 9 9 11 11 12 12 11 12 12 12 22 15 15 13 13 14 12 13 13 11 12
8 9 9 9 13 10 10 10 11 11 11 11 11 10 13 15 11 17 12 12 12 13 12 13 14 14 12
Wind_Direction
242 261 275 276 290 281 283 288 287 293 298 298 297 292 293 298 292 293 291 286 289 285 285 283 281 283 281
243 252 242 265 269 282 288 286 284 286 293 293 295 296 293 292 291 287 286 290 289 286 287 286 282 283 280
279 245 257 266 283 271 269 273 272 284 291 293 293 294 294 291 291 294 295 291 290 288 285 281 280 279 277
269 260 244 278 273 288 296 288 290 285 282 284 288 292 291 295 295 293 290 286 286 284 279 277 278 276 274
268 257 275 286 295 299 290 293 289 278 278 280 274 266 272 285 284 286 286 282 279 281 282 280 278 275 273
229 274 278 292 294 290 287 291 301 253 269 290 293 283 276 272 277 283 282 283 285 284 281 279 277 276 274
294 278 286 285 285 286 280 273 280 293 291 291 289 283 279 273 280 282 283 285 286 284 280 278 276 273 273
250 268 266 269 264 266 292 291 284 284 286 285 287 280 282 275 280 284 284 284 283 281 280 283 283 281 277
293 298 300 301 301 304 290 296 292 291 288 284 275 285 282 278 270 272 277 279 280 283 285 284 281 277 275
292 294 290 280 292 287 275 275 284 292 265 265 299 305 298 232 266 263 268 275 279 282 281 280 280 275 269
296 292 292 287 281 272 260 256 274 267 277 291 290 285 268 292 270 275 270 274 272 273 275 276 276 273 266
301 298 297 296 292 286 282 271 260 263 280 274 271 271 275 280 285 281 275 272 270 271 266 264 271 269 269
296 294 292 289 291 288 284 278 268 269 270 264 256 268 265 271 279 283 288 282 275 269 265 259 254 249 261
295 295 298 295 291 292 291 296 290 290 281 261 252 251 266 265 271 278 276 275 279 275 271 267 261 253 250
296 300 299 297 294 298 288 287 278 292 297 296 275 255 254 262 272 270 272 273 269 269 269 270 264 258 254
300 294 292 294 295 292 289 288 286 289 290 292 296 295 284 259 234 259 271 268 272 272 266 267 269 261 256
295 292 290 287 301 296 293 289 288 287 286 287 285 285 295 293 288 263 270 274 281 279 274 267 268 269 263